Location: Borojevi?i
(45.0486°N, 16.2297°E)
Time: 21:56:55
(UTC+00:00)

CARTOSAT-1 - Pass Details

Date: 08 August 2020
Orbit: 616 x 619 km, 97.8° (Epoch: 22 September)

Event Time Altitude Azimuth Distance (km) Brightness Sun altitude
Exits shadow 20:20:04 44° 145° (SE) 859 3.8 -19.1°
Maximum altitude 20:21:21 72° 74° (ENE) 656 3.5 -19.2°
Drops below altitude 10° 20:25:40 10° 351° (N) 1,996 7.0 -19.7°
Sets 20:27:52 0° 350° (N) 2,907 8.1 -20.0°
